Location: Bullenkuhlen
(53.7689°N, 9.7495°E)
Time: 23:21:22
(UTC+00:00)

Cosmos 676 Rocket - Pass Details

Date: 09 April 2020
Orbit: 755 x 784 km, 74.0° (Epoch: 03 June)

Event Time Altitude Azimuth Distance (km) Brightness Sun altitude
Rises 19:08:10 0° 181° (S) 3,242 7.0 -8.6°
Reaches altitude 10° 19:10:39 10° 174° (S) 2,315 6.2 -8.9°
Maximum altitude 19:15:32 41° 106° (ESE) 1,112 4.4 -9.5°
Drops below altitude 10° 19:20:25 10° 37° (NE) 2,313 6.4 -10.2°
Sets 19:22:54 0° 31° (NNE) 3,239 7.2 -10.5°
